Location: Astronomy Club of Akron Observatory
(40.9700°N, 81.5606°W)
Time: 16:39:08
(UTC-04:00)

ISS - Pass Details

Date: 17 July 2018
Orbit: 402 x 408 km, 51.6° (Epoch: 22 July)

Event Time Altitude Azimuth Distance (km) Brightness Sun altitude
Rises 05:01:42 0° 310° (NW) 2,333 -0.1 -11.2°
Reaches altitude 10° 05:03:57 10° 322° (NW) 1,472 -1.0 -10.8°
Maximum altitude 05:06:55 30° 26° (NNE) 762 -1.7 -10.4°
Drops below altitude 10° 05:09:52 10° 90° (E) 1,468 -0.2 -10.0°
Sets 05:12:07 0° 101° (ESE) 2,327 0.6 -9.7°
